Time,TemperatureF,DewpointF,PressureIn,WindDirection,WindDirectionDegrees,WindSpeedMPH,WindSpeedGustMPH,Humidity,HourlyPrecipIn,Conditions,Clouds,dailyrainin,SolarRadiationWatts/m^2,SoftwareType,DateUTC
2013-06-01 00:02:00,56.0,54.0,-100.00,ENE,70,4.0,7.0,92,0.00,,,0.12,0.000000,,2013-06-01 05:02:00,
2013-06-01 00:22:00,54.0,52.0,-100.00,East,80,4.0,6.0,94,0.00,,,0.12,0.000000,,2013-06-01 05:22:00,
2013-06-01 00:32:00,54.0,52.0,-100.00,East,80,4.0,6.0,94,0.00,,,0.12,0.000000,,2013-06-01 05:32:00,
2013-06-01 00:43:00,54.0,52.0,-100.00,East,80,4.0,6.0,94,0.00,,,0.12,0.000000,,2013-06-01 05:43:00,
2013-06-01 00:52:00,54.0,52.0,-100.00,East,80,4.0,6.0,94,0.00,,,0.12,0.000000,,2013-06-01 05:52:00,
2013-06-01 01:01:00,54.0,52.0,-100.00,East,80,4.0,6.0,94,0.00,,,0.12,0.000000,,2013-06-01 06:01:00,
2013-06-01 01:22:00,54.0,52.0,-100.00,ESE,111,4.0,7.0,93,0.00,,,0.12,0.000000,,2013-06-01 06:22:00,
2013-06-01 01:32:00,54.0,52.0,-100.00,ESE,111,4.0,7.0,93,0.00,,,0.12,0.000000,,2013-06-01 06:32:00,
2013-06-01 01:42:00,54.0,52.0,-100.00,ESE,111,4.0,7.0,93,0.00,,,0.12,0.000000,,2013-06-01 06:42:00,
2013-06-01 01:52:00,54.0,52.0,-100.00,ESE,111,4.0,7.0,93,0.00,,,0.12,0.000000,,2013-06-01 06:52:00,
2013-06-01 02:01:00,54.0,52.0,-100.00,ESE,111,4.0,7.0,93,0.00,,,0.12,0.000000,,2013-06-01 07:01:00,
2013-06-01 02:22:00,54.0,53.0,-100.00,ESE,102,3.0,8.0,95,0.01,,,0.13,0.000000,,2013-06-01 07:22:00,
2013-06-01 02:32:00,54.0,53.0,-100.00,ESE,102,3.0,8.0,95,0.01,,,0.13,0.000000,,2013-06-01 07:32:00,
2013-06-01 02:42:00,54.0,53.0,-100.00,ESE,102,3.0,8.0,95,0.01,,,0.13,0.000000,,2013-06-01 07:42:00,
2013-06-01 02:52:00,54.0,53.0,-100.00,ESE,102,3.0,8.0,95,0.01,,,0.13,0.000000,,2013-06-01 07:52:00,
2013-06-01 03:02:00,54.0,53.0,-100.00,ESE,102,3.0,8.0,95,0.01,,,0.13,0.000000,,2013-06-01 08:02:00,
2013-06-01 03:22:00,54.0,53.0,-100.00,NNW,342,4.0,8.0,97,0.32,,,0.44,0.000000,,2013-06-01 08:22:00,
2013-06-01 03:32:00,54.0,53.0,-100.00,NNW,342,4.0,8.0,97,0.32,,,0.44,0.000000,,2013-06-01 08:32:00,
2013-06-01 03:42:00,54.0,53.0,-100.00,NNW,342,4.0,8.0,97,0.32,,,0.44,0.000000,,2013-06-01 08:42:00,
2013-06-01 03:52:00,54.0,53.0,-100.00,NNW,342,4.0,8.0,97,0.32,,,0.44,0.000000,,2013-06-01 08:52:00,
2013-06-01 04:01:00,54.0,53.0,-100.00,NNW,342,4.0,8.0,97,0.32,,,0.44,0.000000,,2013-06-01 09:01:00,
2013-06-01 04:22:00,53.0,52.0,-100.00,NE,51,3.0,7.0,97,0.01,,,0.45,0.000000,,2013-06-01 09:22:00,
2013-06-01 04:33:00,53.0,52.0,-100.00,NE,51,3.0,7.0,97,0.01,,,0.45,0.000000,,2013-06-01 09:33:00,
2013-06-01 04:43:00,53.0,52.0,-100.00,NE,51,3.0,7.0,97,0.01,,,0.45,0.000000,,2013-06-01 09:43:00,
2013-06-01 04:53:00,53.0,52.0,-100.00,NE,51,3.0,7.0,97,0.01,,,0.45,0.000000,,2013-06-01 09:53:00,
2013-06-01 05:02:00,53.0,52.0,-100.00,NE,51,3.0,7.0,97,0.01,,,0.45,0.000000,,2013-06-01 10:02:00,
2013-06-01 05:22:00,53.0,52.0,-100.00,NE,47,4.0,8.0,97,0.01,,,0.45,0.000000,,2013-06-01 10:22:00,
2013-06-01 05:33:00,53.0,52.0,-100.00,NE,47,4.0,8.0,97,0.01,,,0.45,0.000000,,2013-06-01 10:33:00,
2013-06-01 05:42:00,53.0,52.0,-100.00,NE,47,4.0,8.0,97,0.01,,,0.45,0.000000,,2013-06-01 10:42:00,
2013-06-01 05:52:00,53.0,52.0,-100.00,NE,47,4.0,8.0,97,0.01,,,0.45,0.000000,,2013-06-01 10:52:00,
2013-06-01 06:02:00,53.0,52.0,-100.00,NE,47,4.0,8.0,97,0.01,,,0.45,0.000000,,2013-06-01 11:02:00,
2013-06-01 06:22:00,51.0,50.0,-100.00,NE,35,4.0,10.0,97,0.07,,,0.50,2.000000,,2013-06-01 11:22:00,
2013-06-01 06:33:00,51.0,50.0,-100.00,NE,35,4.0,10.0,97,0.07,,,0.50,2.000000,,2013-06-01 11:33:00,
2013-06-01 06:42:00,51.0,50.0,-100.00,NE,35,4.0,10.0,97,0.07,,,0.50,2.000000,,2013-06-01 11:42:00,
2013-06-01 06:52:00,51.0,50.0,-100.00,NE,35,4.0,10.0,97,0.07,,,0.50,2.000000,,2013-06-01 11:52:00,
2013-06-01 07:01:00,51.0,50.0,-100.00,NE,35,4.0,10.0,97,0.07,,,0.50,2.000000,,2013-06-01 12:01:00,
2013-06-01 07:22:00,48.0,47.0,-100.00,NNE,21,6.0,11.0,97,0.00,,,0.49,17.000000,,2013-06-01 12:22:00,
2013-06-01 07:32:00,48.0,47.0,-100.00,NNE,21,6.0,11.0,97,0.00,,,0.49,17.000000,,2013-06-01 12:32:00,
2013-06-01 07:42:00,48.0,47.0,-100.00,NNE,21,6.0,11.0,97,0.00,,,0.49,17.000000,,2013-06-01 12:42:00,
2013-06-01 07:52:00,48.0,47.0,-100.00,NNE,21,6.0,11.0,97,0.00,,,0.49,17.000000,,2013-06-01 12:52:00,
2013-06-01 08:01:00,48.0,47.0,-100.00,NNE,21,6.0,11.0,97,0.00,,,0.49,17.000000,,2013-06-01 13:01:00,
2013-06-01 08:22:00,47.0,46.0,-100.00,North,10,5.0,13.0,97,0.00,,,0.49,36.000000,,2013-06-01 13:22:00,
2013-06-01 08:32:00,47.0,46.0,-100.00,North,10,5.0,13.0,97,0.00,,,0.49,36.000000,,2013-06-01 13:32:00,
2013-06-01 08:42:00,47.0,46.0,-100.00,North,10,5.0,13.0,97,0.00,,,0.49,36.000000,,2013-06-01 13:42:00,
2013-06-01 08:52:00,47.0,46.0,-100.00,North,10,5.0,13.0,97,0.00,,,0.49,36.000000,,2013-06-01 13:52:00,
2013-06-01 09:02:00,47.0,46.0,-100.00,North,10,5.0,13.0,97,0.00,,,0.49,36.000000,,2013-06-01 14:02:00,
2013-06-01 09:22:00,46.0,45.0,-100.00,NNE,21,5.0,11.0,96,0.00,,,0.48,72.000000,,2013-06-01 14:22:00,
2013-06-01 09:32:00,46.0,45.0,-100.00,NNE,21,5.0,11.0,96,0.00,,,0.48,72.000000,,2013-06-01 14:32:00,
2013-06-01 09:42:00,46.0,45.0,-100.00,NNE,21,5.0,11.0,96,0.00,,,0.48,72.000000,,2013-06-01 14:42:00,
2013-06-01 09:52:00,46.0,45.0,-100.00,NNE,21,5.0,11.0,96,0.00,,,0.48,72.000000,,2013-06-01 14:52:00,
2013-06-01 10:02:00,46.0,45.0,-100.00,NNE,21,5.0,11.0,96,0.00,,,0.48,72.000000,,2013-06-01 15:02:00,
2013-06-01 10:22:00,45.0,44.0,-100.00,NNE,27,4.0,14.0,95,0.01,,,-99.99,100.000000,,2013-06-01 15:22:00,
2013-06-01 10:33:00,45.0,44.0,-100.00,NNE,27,4.0,14.0,95,0.01,,,-99.99,100.000000,,2013-06-01 15:33:00,
2013-06-01 10:43:00,45.0,44.0,-100.00,NNE,27,4.0,14.0,95,0.01,,,-99.99,100.000000,,2013-06-01 15:43:00,
2013-06-01 10:53:00,45.0,44.0,-100.00,NNE,27,4.0,14.0,95,0.01,,,-99.99,100.000000,,2013-06-01 15:53:00,
2013-06-01 11:03:00,45.0,44.0,-100.00,NNE,27,4.0,14.0,95,0.01,,,-99.99,100.000000,,2013-06-01 16:03:00,
2013-06-01 11:23:00,44.0,43.0,-100.00,NNE,13,5.0,13.0,96,0.01,,,0.50,77.000000,,2013-06-01 16:23:00,
2013-06-01 11:33:00,44.0,43.0,-100.00,NNE,13,5.0,13.0,96,0.01,,,0.50,77.000000,,2013-06-01 16:33:00,
2013-06-01 11:42:00,44.0,43.0,-100.00,NNE,13,5.0,13.0,96,0.01,,,0.50,77.000000,,2013-06-01 16:42:00,
2013-06-01 11:52:00,44.0,43.0,-100.00,NNE,13,5.0,13.0,96,0.01,,,0.50,77.000000,,2013-06-01 16:52:00,
2013-06-01 12:02:00,44.0,43.0,-100.00,NNE,13,5.0,13.0,96,0.01,,,0.50,77.000000,,2013-06-01 17:02:00,
2013-06-01 12:22:00,43.0,42.0,-100.00,NNE,13,6.0,12.0,95,0.00,,,0.50,97.000000,,2013-06-01 17:22:00,
2013-06-01 12:32:00,43.0,42.0,-100.00,NNE,13,6.0,12.0,95,0.00,,,0.50,97.000000,,2013-06-01 17:32:00,
2013-06-01 12:42:00,43.0,42.0,-100.00,NNE,13,6.0,12.0,95,0.00,,,0.50,97.000000,,2013-06-01 17:42:00,
2013-06-01 12:52:00,43.0,42.0,-100.00,NNE,13,6.0,12.0,95,0.00,,,0.50,97.000000,,2013-06-01 17:52:00,
2013-06-01 13:01:00,43.0,42.0,-100.00,NNE,13,6.0,12.0,95,0.00,,,0.50,97.000000,,2013-06-01 18:01:00,
2013-06-01 13:22:00,43.0,42.0,-100.00,North,10,6.0,12.0,95,0.02,,,0.52,150.000000,,2013-06-01 18:22:00,
2013-06-01 13:32:00,43.0,42.0,-100.00,North,10,6.0,12.0,95,0.02,,,0.52,150.000000,,2013-06-01 18:32:00,
2013-06-01 13:42:00,43.0,42.0,-100.00,North,10,6.0,12.0,95,0.02,,,0.52,150.000000,,2013-06-01 18:42:00,
2013-06-01 13:52:00,43.0,42.0,-100.00,North,10,6.0,12.0,95,0.02,,,0.52,150.000000,,2013-06-01 18:52:00,
2013-06-01 14:02:00,43.0,42.0,-100.00,North,10,6.0,12.0,95,0.02,,,0.52,150.000000,,2013-06-01 19:02:00,
2013-06-01 14:21:00,44.0,42.0,-100.00,NNE,23,5.0,15.0,94,0.03,,,0.55,194.000000,,2013-06-01 19:21:00,
2013-06-01 14:32:00,44.0,42.0,-100.00,NNE,23,5.0,15.0,94,0.03,,,0.55,194.000000,,2013-06-01 19:32:00,
2013-06-01 14:42:00,44.0,42.0,-100.00,NNE,23,5.0,15.0,94,0.03,,,0.55,194.000000,,2013-06-01 19:42:00,
2013-06-01 14:52:00,44.0,42.0,-100.00,NNE,23,5.0,15.0,94,0.03,,,0.55,194.000000,,2013-06-01 19:52:00,
2013-06-01 15:01:00,44.0,42.0,-100.00,NNE,23,5.0,15.0,94,0.03,,,0.55,194.000000,,2013-06-01 20:01:00,
2013-06-01 15:22:00,44.0,42.0,-100.00,North,9,6.0,16.0,94,0.02,,,0.55,265.000000,,2013-06-01 20:22:00,
2013-06-01 15:32:00,44.0,42.0,-100.00,North,9,6.0,16.0,94,0.02,,,0.55,265.000000,,2013-06-01 20:32:00,
2013-06-01 15:42:00,44.0,42.0,-100.00,North,9,6.0,16.0,94,0.02,,,0.55,265.000000,,2013-06-01 20:42:00,
2013-06-01 15:52:00,44.0,42.0,-100.00,North,9,6.0,16.0,94,0.02,,,0.55,265.000000,,2013-06-01 20:52:00,
2013-06-01 16:01:00,44.0,42.0,-100.00,North,9,6.0,16.0,94,0.02,,,0.55,265.000000,,2013-06-01 21:01:00,
2013-06-01 16:22:00,45.0,43.0,-100.00,NNE,19,5.0,13.0,94,0.02,,,0.55,181.000000,,2013-06-01 21:22:00,
2013-06-01 16:33:00,45.0,43.0,-100.00,NNE,19,5.0,13.0,94,0.02,,,0.55,181.000000,,2013-06-01 21:33:00,
2013-06-01 16:43:00,45.0,43.0,-100.00,NNE,19,5.0,13.0,94,0.02,,,0.55,181.000000,,2013-06-01 21:43:00,
2013-06-01 16:53:00,45.0,43.0,-100.00,NNE,19,5.0,13.0,94,0.02,,,0.55,181.000000,,2013-06-01 21:53:00,
2013-06-01 17:03:00,45.0,43.0,-100.00,NNE,19,5.0,13.0,94,0.02,,,0.55,181.000000,,2013-06-01 22:03:00,
2013-06-01 17:23:00,45.0,43.0,-100.00,North,6,6.0,15.0,91,0.00,,,0.55,301.000000,,2013-06-01 22:23:00,
2013-06-01 17:33:00,45.0,43.0,-100.00,North,6,6.0,15.0,91,0.00,,,0.55,301.000000,,2013-06-01 22:33:00,
2013-06-01 17:42:00,45.0,43.0,-100.00,North,6,6.0,15.0,91,0.00,,,0.55,301.000000,,2013-06-01 22:42:00,
2013-06-01 17:53:00,45.0,43.0,-100.00,North,6,6.0,15.0,91,0.00,,,0.55,301.000000,,2013-06-01 22:53:00,
2013-06-01 18:02:00,45.0,43.0,-100.00,North,6,6.0,15.0,91,0.00,,,0.55,301.000000,,2013-06-01 23:02:00,
2013-06-01 18:22:00,44.0,40.0,-100.00,NNE,17,7.0,17.0,87,0.00,,,0.54,236.000000,,2013-06-01 23:22:00,
2013-06-01 18:32:00,44.0,40.0,-100.00,NNE,17,7.0,17.0,87,0.00,,,0.54,236.000000,,2013-06-01 23:32:00,
2013-06-01 18:42:00,44.0,40.0,-100.00,NNE,17,7.0,17.0,87,0.00,,,0.54,236.000000,,2013-06-01 23:42:00,
2013-06-01 18:52:00,44.0,40.0,-100.00,NNE,17,7.0,17.0,87,0.00,,,0.54,236.000000,,2013-06-01 23:52:00,
2013-06-01 19:02:00,44.0,40.0,-100.00,NNE,17,7.0,17.0,87,0.00,,,0.54,236.000000,,2013-06-02 00:02:00,
2013-06-01 19:22:00,45.0,41.0,-100.00,NNE,22,6.0,16.0,87,0.00,,,0.53,168.000000,,2013-06-02 00:22:00,
2013-06-01 19:32:00,45.0,41.0,-100.00,NNE,22,6.0,16.0,87,0.00,,,0.53,168.000000,,2013-06-02 00:32:00,
2013-06-01 19:42:00,45.0,41.0,-100.00,NNE,22,6.0,16.0,87,0.00,,,0.53,168.000000,,2013-06-02 00:42:00,
2013-06-01 19:52:00,45.0,41.0,-100.00,NNE,22,6.0,16.0,87,0.00,,,0.53,168.000000,,2013-06-02 00:52:00,
2013-06-01 20:01:00,45.0,41.0,-100.00,NNE,22,6.0,16.0,87,0.00,,,0.53,168.000000,,2013-06-02 01:01:00,
2013-06-01 20:22:00,45.0,41.0,-100.00,NNE,18,5.0,15.0,86,0.00,,,0.53,94.000000,,2013-06-02 01:22:00,
2013-06-01 20:32:00,45.0,41.0,-100.00,NNE,18,5.0,15.0,86,0.00,,,0.53,94.000000,,2013-06-02 01:32:00,
2013-06-01 20:42:00,45.0,41.0,-100.00,NNE,18,5.0,15.0,86,0.00,,,0.53,94.000000,,2013-06-02 01:42:00,
2013-06-01 20:52:00,45.0,41.0,-100.00,NNE,18,5.0,15.0,86,0.00,,,0.53,94.000000,,2013-06-02 01:52:00,
2013-06-01 21:01:00,45.0,41.0,-100.00,NNE,18,5.0,15.0,86,0.00,,,0.53,94.000000,,2013-06-02 02:01:00,
2013-06-01 21:22:00,44.0,42.0,-100.00,North,6,6.0,16.0,92,0.01,,,0.54,19.000000,,2013-06-02 02:22:00,
2013-06-01 21:32:00,44.0,42.0,-100.00,North,6,6.0,16.0,92,0.01,,,0.54,19.000000,,2013-06-02 02:32:00,
2013-06-01 21:42:00,44.0,42.0,-100.00,North,6,6.0,16.0,92,0.01,,,0.54,19.000000,,2013-06-02 02:42:00,
2013-06-01 21:52:00,44.0,42.0,-100.00,North,6,6.0,16.0,92,0.01,,,0.54,19.000000,,2013-06-02 02:52:00,
2013-06-01 22:02:00,44.0,42.0,-100.00,North,6,6.0,16.0,92,0.01,,,0.54,19.000000,,2013-06-02 03:02:00,
2013-06-01 22:22:00,43.0,41.0,-100.00,NNE,16,7.0,15.0,92,0.00,,,0.54,0.000000,,2013-06-02 03:22:00,
2013-06-01 22:33:00,43.0,41.0,-100.00,NNE,16,7.0,15.0,92,0.00,,,0.54,0.000000,,2013-06-02 03:33:00,
2013-06-01 22:43:00,43.0,41.0,-100.00,NNE,16,7.0,15.0,92,0.00,,,0.54,0.000000,,2013-06-02 03:43:00,
2013-06-01 22:53:00,43.0,41.0,-100.00,NNE,16,7.0,15.0,92,0.00,,,0.54,0.000000,,2013-06-02 03:53:00,
2013-06-01 23:02:00,43.0,41.0,-100.00,NNE,16,7.0,15.0,92,0.00,,,0.54,0.000000,,2013-06-02 04:02:00,
2013-06-01 23:23:00,42.0,40.0,-100.00,NNE,12,4.0,13.0,92,0.00,,,0.54,0.000000,,2013-06-02 04:23:00,
2013-06-01 23:33:00,42.0,40.0,-100.00,NNE,12,4.0,13.0,92,0.00,,,0.54,0.000000,,2013-06-02 04:33:00,
2013-06-01 23:42:00,42.0,40.0,-100.00,NNE,12,4.0,13.0,92,0.00,,,0.54,0.000000,,2013-06-02 04:42:00,
2013-06-01 23:53:00,42.0,40.0,-100.00,NNE,12,4.0,13.0,92,0.00,,,0.54,0.000000,,2013-06-02 04:53:00,